Weather History for KMTO - October, 2011

Change the Weather History Date:

Wednesday, October 12, 2011

  Actual Average Record
Temperature  
Mean Temperature 66 °F 56 °F  
Max Temperature 77 °F 67 °F 88 °F (1962)
Min Temperature 55 °F 45 °F 25 °F (1987)
Degree Days  
Heating Degree Days 0 10  
Month to date heating degree days 38 96  
Since 1 July heating degree days 147 167  
Cooling Degree Days 1 1  
Month to date cooling degree days 17 14  
Year to date cooling degree days 1308 1052  
Growing Degree Days 15 (Base 50)    
Moisture  
Dew Point 57 °F    
Average Humidity 76    
Maximum Humidity 97    
Minimum Humidity 54    
Precipitation  
Precipitation 0.13 in 0.09 in 2.23 in (1978)
Month to date precipitation 0.13 1.04  
Year to date precipitation 27.04 30.01  
Sea Level Pressure  
Sea Level Pressure 29.78 in    
Wind  
Wind Speed 8 mph (SSE)    
Max Wind Speed 14 mph    
Max Gust Speed 21 mph    
Visibility 9 miles    
Events Rain    
T = Trace of Precipitation, MM = Missing Value Source: NWS Daily Summary

Daily Weather History Graph

Daily Weather History Graph

Search for Another Location

Airport or City:

Trip Planner

Search our weather history database for the weather conditions in past years. The results will help you decide how hot, cold, wet, or windy it might be!

Date:

Astronomy

Oct. 12, 2011 Rise Set
Actual Time 6:59 AM CDT 6:18 PM CDT
Civil Twilight 6:32 AM CDT 6:45 PM CDT
Nautical Twilight 6:01 AM CDT 7:16 PM CDT
Astronomical Twilight 5:30 AM CDT 7:47 PM CDT
Moon 6:21 PM CDT (10/12) 7:33 AM CDT (10/12)
Length of Visible Light 12h 13m
Length of Day
11h 19m
Full, 100% of the Moon is Illuminated
Oct 12
Full
Oct 19
Last Quarter
Oct 26
New
Nov 2
First Quarter
Nov 10
Full

Hourly Weather History & Observations

Time (CDT) Temp. Dew Point Humidity Pressure Visibility Wind Dir Wind Speed Gust Speed Precip Events Conditions
12:53 AM 61.0 °F 53.1 °F 75% 29.87 in 10.0 mi SE 6.9 mph - N/A   Clear
1:53 AM 59.0 °F 53.1 °F 81% 29.87 in 10.0 mi SSE 6.9 mph - N/A   Clear
2:53 AM 59.0 °F 54.0 °F 83% 29.86 in 10.0 mi SSE 6.9 mph - N/A   Clear
3:53 AM 57.0 °F 54.0 °F 89% 29.85 in 10.0 mi SSE 5.8 mph - N/A   Clear
4:53 AM 57.0 °F 53.1 °F 87% 29.84 in 10.0 mi SE 6.9 mph - N/A   Clear
5:53 AM 55.9 °F 53.1 °F 90% 29.85 in 10.0 mi SSE 8.1 mph - N/A   Clear
6:53 AM 55.9 °F 53.1 °F 90% 29.84 in 10.0 mi SSE 8.1 mph - N/A   Clear
7:53 AM 57.0 °F 55.0 °F 93% 29.84 in 7.0 mi SSE 8.1 mph - N/A   Clear
8:53 AM 62.1 °F 57.0 °F 84% 29.84 in 10.0 mi SSE 11.5 mph - N/A   Clear
9:53 AM 64.9 °F 57.9 °F 78% 29.83 in 10.0 mi SSE 8.1 mph - N/A   Clear
10:53 AM 70.0 °F 59.0 °F 68% 29.81 in 10.0 mi SE 9.2 mph - N/A   Clear
11:53 AM 73.9 °F 59.0 °F 59% 29.79 in 10.0 mi SE 11.5 mph - N/A   Clear
12:53 PM 75.9 °F 57.9 °F 54% 29.76 in 10.0 mi SE 11.5 mph 17.3 mph N/A   Clear
1:53 PM 73.9 °F 57.0 °F 55% 29.73 in 10.0 mi SSE 6.9 mph - N/A   Mostly Cloudy
2:53 PM 72.0 °F 57.0 °F 59% 29.72 in 10.0 mi West 11.5 mph 18.4 mph N/A   Mostly Cloudy
4:53 PM 63.0 °F 60.1 °F 90% 29.72 in 10.0 mi SE 4.6 mph - 0.00 in Rain Light Rain
5:53 PM 62.1 °F 61.0 °F 96% 29.71 in 8.0 mi ESE 5.8 mph - 0.03 in Rain Light Rain
6:53 PM 62.1 °F 60.1 °F 93% 29.71 in 6.0 mi SE 4.6 mph - 0.01 in Rain Light Rain
7:53 PM 62.1 °F 60.1 °F 93% 29.70 in 7.0 mi SSE 6.9 mph - 0.00 in   Overcast
9:53 PM 61.0 °F 59.0 °F 93% 29.68 in 9.0 mi SSE 6.9 mph - 0.01 in   Overcast
10:53 PM 61.0 °F 59.0 °F 93% 29.68 in 6.0 mi SSE 6.9 mph - 0.00 in Rain Light Rain
11:21 PM 60.8 °F 59.0 °F 94% 29.68 in 6.0 mi SSE 8.1 mph - 0.01 in Rain Light Rain
11:53 PM 61.0 °F 59.0 °F 93% 29.65 in 6.0 mi SSE 10.4 mph - 0.02 in Rain Light Rain